Orbital Elements at Epoch 2459200.5 (2020-Dec-17.0) TDB
Reference: JPL 13 (heliocentric ecliptic J2000)
Element | Value | Uncertainty (1-sigma) | Units |
e | .08299083108301414 | 6.1736e-08 | |
a | 2.868652210887186 | 2.67e-08 | au |
q | 2.630580379817533 | 1.698e-07 | au |
i | 1.45138108870164 | 5.6311e-06 | deg |
node | 208.1142755919641 | 0.00019715 | deg |
peri | 157.2824448815848 | 0.00019902 | deg |
M | 314.9055819696565 | 2.9258e-05 | deg |
tp | 2459422.798002542721 (2021-Jul-27.29800254) | 0.00014592 | TDB |
period | 1774.660465992268 4.86 | 2.4777e-05 6.784e-08 | d yr |
n | .2028557050200095 | 2.8322e-09 | deg/d |
Q | 3.106724041956839 | 2.8916e-08 | au |
|
| | Orbit Determination Parameters
Additional Information
|